STARLINK-37407, 69534

Orbit data source: Space-Track

STARLINK-37407, 69534 is a payload satellite owned by SpaceX/Seattle (US) in LEO that was launched on Fri, 12 Jun 2026 UTC via an FALCON 9 launch vehicle from the Air Force Eastern Test Range (AFETR). Payload-class satellites include a variety of spacecraft equipped with specific instruments for various scientific and technological missions. These include communications satellites like Starlink; space stations such as the ISS; scientific satellites like the Hubble; Earth observation satellites from companies like Planet Labs, Umbra, and HawkEye 360; GPS; miniature CubeSats for education and research; and military/defense satellites.

Not visible in the next 10 days
Identifier
69534, 2026-133AC
Orbit
LEO
Country
Flag of USUS
Related business
Manufacturer
SpaceX/Seattle
Mission
Operational spacecraft
Bus & Motor
STARLINK V2MO, Unknown motor
Mass
575 kg wet, ~530 kg dry
Launch date (UTC)
2026-06-12 (1 week ago)
Launch vehicle
FALCON 9
Launch site
Air Force Eastern Test Range (AFETR)
Object type
Payload
Rocket body
Debris
Shape & HBR
Unknown
Radar Cross Section
RCS unknown

Expand to show TLE details & history
Last TLE update: 10 hours ago

TLE from 10 hours ago
0 STARLINK-37407
1 69534U 26133AC  26171.41668980 -.01476205  72890-3 -18854-2 0  9995
2 69534  53.1570 305.9347 0000711  78.6011  49.3266 16.06732217  2437
Epoch: 2026-06-20T10:00Z
TLE epoch observation values (Epoch: 2026-06-20T10:00:01.998Z)
Latitude
39.26964°
Longitude
29.7688°
Altitude
258.938 km
Speed
7.757 km/s
True Right ascension
05h 53m 38s
True Declination
39° 05' 19"
Sunlit
Object was in daylight at epoch
Visualization orbit readout
Latitude
Unknown
Longitude
Unknown
Altitude
Unknown
Speed
Unknown
Apparent Right ascension
Unknown
Apparent Declination
Unknown
Sunlit
N/A
Visualization observer readout
Local Sidereal Time
07:17:04
Azimuth
Unknown
Elevation
Unknown
Doppler factor
Unknown
Orbital elements
Apogee altitude
256.56 km
Perigee altitude
255.616 km
Semi-major axis
6,634.225 km
Eccentricity
0.00007
Inclination
53.157°
RAAN
305.9347°
Arg. of periapsis
78.6011°
True anomaly
49.33278°
Mean anomaly
49.3266°
Eccentric anomaly
49.32969°
Mean motion
4.01659 °/min
Orbital period
89.63 mins
BSTAR
-0.0018854
Loading maneuver chart data...
Computing Atmospheric mass density...
Loading historical data...
Loading historical data...
Loading historical data...
Loading historical data...
Loading historical data...
Loading historical data...
Loading historical data...

Documentation

Showing up to 5 results
|